Regional Weather Roundup
Issued by NWS

Home | Current Version | Previous Version | Graphics & Text | Print | Product List | Glossary Off
Versions: 1 2 3 4 5 6 7 8 9 10 11 12 13 14 15 16 17 18 19 20 21 22 23 24 25 26 27 28 29 30 31 32 33 34 35 36 37 38 39 40 41 42 43 44 45 46 47 48 49 50

000
ASUS43 KTOP 181208
RWRKS

WEATHER ROUNDUP FOR KANSAS
NATIONAL WEATHER SERVICE GOODLAND KS
700 AM CDT THU SEP 18 2014

NOTE:  "FAIR" INDICATES FEW OR NO CLOUDS BELOW 12,000 FEET WITH NO
SIGNIFICANT WEATHER AND/OR OBSTRUCTIONS TO VISIBILITY.

KSZ001>006-013>018-027>032-041>047-181300-
NORTHWEST KANSAS

CITY           SKY/WX    TMP DP  RH WIND       PRES   REMARKS
GOODLAND       CLOUDY    63  63 100 E5        29.97R FOG
6HR MIN TEMP:  58; 6HR MAX TEMP:  63;

HAYS           CLOUDY    66  63  88 E9        29.91S
HILL CITY      CLOUDY    64  63  96 E12       29.94R FOG
6HR MIN TEMP:  64; 6HR MAX TEMP:  68;

RUSSELL        MOCLDY    62  60  93 NE8       29.91R
6HR MIN TEMP:  62; 6HR MAX TEMP:  68;

$$

KSZ061>065-074>080-084>089-181300-
SOUTHWEST KANSAS

CITY           SKY/WX    TMP DP  RH WIND       PRES   REMARKS
DODGE CITY     CLEAR     59  55  87 SW6       29.93R
6HR MIN TEMP:  58; 6HR MAX TEMP:  69;

ELKHART          N/A     63  56  78 W9          N/A
GARDEN CITY    CLEAR     54  53  97 CALM      29.92R
6HR MIN TEMP:  55; 6HR MAX TEMP:  65;

GREAT BEND     CLOUDY    68  64  88 E8        29.91R
LIBERAL        CLEAR     61  55  82 W8        29.95R
PRATT          FOG       63  63 100 E5        29.92R VSB 1
$$

KSZ066>073-081>083-090>101-181300-
SOUTHEAST KANSAS

CITY           SKY/WX    TMP DP  RH WIND       PRES   REMARKS
CHANUTE        LGT RAIN  65  63  93 SE13      29.93F
6HR MIN TEMP:  63; 6HR MAX TEMP:  72; 6HR PCP:  2.55;

COFFEYVILLE    LGT RAIN  65  63  93 SE13      30.00F
6HR MIN TEMP:  64; 6HR MAX TEMP:  70; 6HR PCP:  0.43;

HUTCHINSON     CLOUDY    70  67  90 SE14      29.91R FOG
6HR MIN TEMP:  70; 6HR MAX TEMP:  71;

MEDICINE LODGE   N/A     62  60  93 NE3       29.90R
NEWTON         PTCLDY    66  61  82 SE18      29.93S
PARSONS        LGT RAIN  65  64  97 VRB6      30.00F
6HR MIN TEMP:  64; 6HR MAX TEMP:  71;

WICHITA INTL   MOCLDY    70  67  90 SE14      29.92R
6HR MIN TEMP:  70; 6HR MAX TEMP:  76;

WICHITA JABRA  CLOUDY    69  66  90 SE18G26   29.93R
6HR MIN TEMP:  68; 6HR MAX TEMP:  72;

WICHITA MCCONL CLOUDY    70  70 100 E16G23    29.93R
WINFIELD       CLOUDY    70  64  81 SE18G31   29.97R
6HR MIN TEMP:  70; 6HR MAX TEMP:  76;

$$

KSZ007>012-019>026-033>040-048>060-102>105-181300-
NORTHEAST KANSAS

CITY           SKY/WX    TMP DP  RH WIND       PRES   REMARKS
CONCORDIA      CLOUDY    64  64 100 E12       29.95R
6HR MIN TEMP:  63; 6HR MAX TEMP:  66;

EMPORIA        TSTM      64  64 100 NW10      29.96R
6HR MIN TEMP:  64; 6HR MAX TEMP:  68; 6HR PCP:  1.23;

LAWRENCE       CLOUDY    63  61  93 E6        29.99R FOG
6HR MIN TEMP:  62; 6HR MAX TEMP:  64;

MANHATTAN      CLOUDY    66  64  93 E12       29.96R FOG
6HR MIN TEMP:  65; 6HR MAX TEMP:  68; 6HR PCP: TRACE;

MARYSVILLE     CLOUDY    63  61  94 SE8G16    29.97R
OLATHE IND     CLOUDY    62  61  96 E9        29.99S FOG
OLATHE EXE     CLOUDY    61  60  97 E7        29.99R FOG
6HR MIN TEMP:  61; 6HR MAX TEMP:  64;

SALINA         PTCLDY    66  63  90 E9        29.92R
6HR MIN TEMP:  63; 6HR MAX TEMP:  71; 6HR PCP:  0.72;

TOPEKA BILLARD CLOUDY    64  63  96 E10       29.97S FOG
6HR MIN TEMP:  64; 6HR MAX TEMP:  66;

TOPEKA FORBES  CLOUDY    64  62  93 E10       29.96S FOG
6HR MIN TEMP:  60; 6HR MAX TEMP:  65;

$$



USA.gov is the U.S. government's official web portal to all federal, state and local government web resources and services.